#timestamp,LO_Frequency,Hit,StdDev 
1692460815.9,286047004.8,N
1692460835.7,286047004.3,N
1692460855.5,286046999.6,N
1692460875.4,286046999.0,N
1692460895.2,286046993.9,N
1692460915.0,286046997.6,N
1692460915.9,286046997.6,N
1692460935.8,286046996.3,N
1692460955.6,286046996.3,N
1692460975.4,286046995.4,N
1692460995.3,286046998.7,N
1692461015.1,286047009.1,N
1692461035.9,286047008.2,N
1692461055.7,286047009.6,N
1692461075.5,286046997.3,N
1692461095.4,286046994.9,N
1692461115.2,286047005.6,N
1692461135.0,286047007.6,N
1692461135.9,286047007.6,N
1692461155.8,286047002.1,N
1692461175.6,286047010.0,N
1692461195.5,286047009.8,N
1692461215.3,286047010.9,N
1692461235.1,286047011.7,N
1692461255.9,286047011.9,N
1692461275.7,286047011.4,N
1692461295.5,286047012.1,N
1692461315.4,286047000.0,N
1692461335.2,286047005.8,N
1692461355.1,286046999.4,N
1692461356.0,286046999.4,N
1692461375.8,286047005.0,N
1692461395.6,286047014.0,N
1692461415.5,286047012.5,N
1692461435.3,286047013.2,N
1692461455.1,286047003.7,N
1692461475.9,286047003.1,N
1692461495.7,286047013.9,N
1692461515.6,286047011.4,N
1692461535.4,286047011.5,N
1692461555.2,286047012.4,N
1692461575.1,286047010.8,N
1692461576.0,286047010.8,N
1692461595.8,286047005.9,N
1692461615.6,286047011.6,N
1692461635.5,286046995.9,N
1692461655.3,286047011.4,N
1692461675.2,286047008.2,N
1692461695.9,286047008.6,N
1692461715.7,286047010.4,N
1692461735.6,286047013.5,N
1692461755.4,286047014.0,N
1692461775.2,286047011.4,N
1692461795.1,286047010.5,N
1692461796.0,286047010.5,N
1692461815.8,286047001.6,N
1692461835.7,286047011.1,N
1692461855.5,286047006.4,N
1692461875.3,286047009.3,N
1692461895.2,286047015.4,Y
1692461915.0,286047006.4,P
1692461915.9,286047006.4,P
1692461935.7,286047007.1,P
1692461955.6,286047008.8,Y
1692461975.4,286046998.3,P
1692461995.3,286046998.5,N
1692462015.1,286046996.5,N
1692462035.8,286046996.8,N
1692462055.7,286047000.6,N
1692462075.5,286046999.2,N
1692462095.3,286047000.7,N
1692462115.2,286047000.5,N
1692462135.0,286047001.4,N
1692462135.9,286047001.4,N
1692462155.8,286047004.2,N
1692462175.6,286047002.1,N
1692462195.4,286046999.8,N
1692462215.3,286047000.3,N
1692462235.1,286046999.9,N
1692462255.9,286047001.1,N
1692462275.7,286046999.0,N
1692462295.5,286046999.2,N
1692462315.4,286046985.6,Y
1692462335.2,286046997.5,P
1692462355.0,286046992.9,P
1692462355.9,286046992.9,N
1692462375.8,286046996.1,N
1692462395.6,286046997.0,N
1692462415.5,286046999.0,N
1692462435.3,286047000.9,N
1692462455.1,286047000.8,N
1692462475.9,286047002.8,N
1692462495.7,286046999.7,N
1692462515.5,286047001.9,N
1692462535.4,286047002.0,N
1692462555.2,286047004.4,N
1692462575.1,286047001.3,N
1692462576.0,286047001.3,N
1692462595.8,286047004.2,N
1692462615.6,286047004.9,N
1692462635.5,286047004.5,N
1692462655.3,286047007.1,N
1692462675.1,286047006.1,N
1692462695.9,286047005.2,N
1692462715.7,286047007.5,N
1692462735.6,286047005.1,N
1692462755.4,286047007.3,N
1692462775.2,286047004.7,N
1692462795.1,286047004.8,N
1692462796.0,286047004.8,N
1692462815.8,286047007.4,N
1692462835.6,286047006.1,N
1692462855.5,286047006.8,N
1692462875.3,286047006.1,N
1692462895.2,286047006.3,N
1692462915.9,286047008.7,N
1692462935.7,286047006.5,N
1692462955.6,286047008.2,N
1692462975.4,286047008.1,Y
1692462995.2,286047002.9,P
1692463015.1,286047005.4,P
1692463016.0,286047005.4,P
1692463035.8,286047005.5,Y
1692463055.7,286047000.4,P
1692463075.5,286046999.9,N
1692463095.3,286047000.0,N
1692463115.2,286047000.9,N
1692463135.0,286047000.6,N
1692463135.9,286047000.6,N
1692463155.8,286047002.8,N
1692463175.6,286047000.8,N
1692463195.4,286046999.8,N
1692463215.3,286047002.8,N
1692463235.1,286046999.2,N
1692463236.0,286046999.2,N
1692463255.9,286047001.0,N
1692463275.7,286047002.0,N
1692463295.5,286047000.0,N
1692463315.4,286047002.1,N
1692463335.2,286047003.6,N
1692463355.0,286047003.7,N
1692463355.9,286047003.7,N
1692463375.8,286047001.9,N
1692463395.6,286047000.1,N
1692463415.5,286047000.4,N
1692463435.3,286046998.5,N
1692463455.1,286047000.8,N
1692463475.9,286046998.3,N
1692463495.7,286047001.1,N
1692463515.5,286047000.5,N
1692463535.4,286046998.4,N
1692463555.2,286046998.9,N
1692463575.1,286046998.1,N
1692463576.0,286046998.1,N
1692463595.8,286047001.0,N
1692463615.6,286046998.1,N
1692463635.5,286047001.0,N
1692463655.3,286046999.8,N
1692463675.1,286047000.4,N
1692463695.9,286046999.9,N
1692463715.7,286047001.7,N
1692463735.6,286047002.3,N
1692463755.4,286047000.2,N
1692463775.2,286047002.0,N
1692463795.1,286047001.7,N
1692463796.0,286047001.7,N
1692463815.8,286047004.1,N
1692463835.6,286047001.4,N
1692463855.5,286047004.0,N
1692463875.3,286047003.8,N
1692463895.2,286047003.2,N
1692463915.9,286047003.5,N
1692463935.7,286047003.6,N
1692463955.6,286047001.8,N
1692463975.4,286047001.8,N
1692463995.2,286047001.8,N
1692464015.1,286047002.7,N
1692464016.0,286047002.7,N
1692464035.8,286047002.3,N
1692464055.7,286047002.8,N
1692464075.5,286046999.7,N
1692464095.3,286047002.5,N
1692464115.2,286047002.6,N
1692464135.9,286046999.8,N
1692464155.7,286047000.3,N
1692464175.6,286047001.0,N
1692464195.4,286047000.8,N
1692464215.2,286047001.2,N
1692464235.1,286046998.8,N
1692464236.0,286046998.8,N
1692464255.8,286046999.2,N
1692464275.7,286046998.7,N
1692464295.5,286046999.4,N
1692464315.3,286046998.1,N
1692464335.2,286046999.0,N
1692464355.0,286046998.2,N
1692464355.9,286046998.2,N
1692464375.8,286047000.8,N
1692464395.6,286047000.7,N
